Time,TemperatureF,DewpointF,PressureIn,WindDirection,WindDirectionDegrees,WindSpeedMPH,WindSpeedGustMPH,Humidity,HourlyPrecipIn,Conditions,Clouds,dailyrainin,SoftwareType,DateUTC
2013-02-26 00:01:00,34.0,25.0,-100.00,ENE,60,1.0,3.0,69,-99.99,,,-99.99,,2013-02-26 08:01:00,
2013-02-26 00:11:00,34.0,25.0,-100.00,ENE,60,1.0,3.0,69,-99.99,,,-99.99,,2013-02-26 08:11:00,
2013-02-26 01:01:00,32.0,25.0,-100.00,WSW,240,1.0,2.0,75,-99.99,,,-99.99,,2013-02-26 09:01:00,
2013-02-26 01:11:00,32.0,25.0,-100.00,WSW,240,1.0,2.0,75,-99.99,,,-99.99,,2013-02-26 09:11:00,
2013-02-26 02:01:00,31.0,25.0,-100.00,West,260,0.0,3.0,78,-99.99,,,-99.99,,2013-02-26 10:01:00,
2013-02-26 03:01:00,31.0,25.0,-100.00,ENE,75,1.0,5.0,78,-99.99,,,-99.99,,2013-02-26 11:01:00,
2013-02-26 03:11:00,31.0,25.0,-100.00,ENE,75,1.0,5.0,78,-99.99,,,-99.99,,2013-02-26 11:11:00,
2013-02-26 04:01:00,31.0,26.0,-100.00,North,360,1.0,1.0,81,-99.99,,,-99.99,,2013-02-26 12:01:00,
2013-02-26 05:01:00,32.0,26.0,-100.00,East,80,1.0,1.0,78,-99.99,,,-99.99,,2013-02-26 13:01:00,
2013-02-26 05:11:00,32.0,26.0,-100.00,East,80,1.0,1.0,78,-99.99,,,-99.99,,2013-02-26 13:11:00,
2013-02-26 06:01:00,35.0,25.0,-100.00,SE,145,2.0,7.0,66,-99.99,,,-99.99,,2013-02-26 14:01:00,
2013-02-26 07:02:00,37.0,23.0,-100.00,ESE,105,5.0,7.0,56,-99.99,,,-99.99,,2013-02-26 15:02:00,
2013-02-26 07:11:00,37.0,23.0,-100.00,ESE,105,5.0,7.0,56,-99.99,,,-99.99,,2013-02-26 15:11:00,
2013-02-26 08:01:00,36.0,24.0,-100.00,SSE,155,1.0,5.0,61,-99.99,,,-99.99,,2013-02-26 16:01:00,
2013-02-26 08:10:00,38.0,23.0,-100.00,North,5,6.0,10.0,54,-99.99,,,-99.99,,2013-02-26 16:10:00,
2013-02-26 09:01:00,38.0,23.0,-100.00,North,5,6.0,10.0,54,-99.99,,,-99.99,,2013-02-26 17:01:00,
2013-02-26 10:01:00,39.0,24.0,-100.00,East,100,1.0,6.0,54,-99.99,,,-99.99,,2013-02-26 18:01:00,
2013-02-26 10:10:00,44.0,24.0,-100.00,NE,50,5.0,9.0,44,-99.99,,,-99.99,,2013-02-26 18:10:00,
2013-02-26 11:00:00,47.0,24.0,-100.00,SE,125,3.0,9.0,40,-99.99,,,-99.99,,2013-02-26 19:00:00,
2013-02-26 11:01:00,44.0,24.0,-100.00,NE,50,5.0,9.0,44,-99.99,,,-99.99,,2013-02-26 19:01:00,
2013-02-26 13:20:00,49.0,19.0,-100.00,WNW,300,2.0,3.0,30,-99.99,,,-99.99,,2013-02-26 21:20:00,
2013-02-26 14:01:00,49.0,19.0,-100.00,WNW,300,2.0,3.0,30,-99.99,,,-99.99,,2013-02-26 22:01:00,
2013-02-26 14:10:00,50.0,22.0,-100.00,SW,225,6.0,10.0,32,-99.99,,,-99.99,,2013-02-26 22:10:00,
2013-02-26 14:11:00,49.0,19.0,-100.00,WNW,300,2.0,3.0,30,-99.99,,,-99.99,,2013-02-26 22:11:00,
2013-02-26 15:01:00,50.0,22.0,-100.00,SW,225,6.0,10.0,32,-99.99,,,-99.99,,2013-02-26 23:01:00,
2013-02-26 16:01:00,50.0,23.0,-100.00,WNW,285,5.0,10.0,34,-99.99,,,-99.99,,2013-02-27 00:01:00,
2013-02-26 16:10:00,51.0,22.0,-100.00,SW,225,7.0,12.0,31,-99.99,,,-99.99,,2013-02-27 00:10:00,
2013-02-26 16:11:00,50.0,23.0,-100.00,WNW,285,5.0,10.0,34,-99.99,,,-99.99,,2013-02-27 00:11:00,
2013-02-26 17:00:00,49.0,22.0,-100.00,SW,225,2.0,7.0,34,-99.99,,,-99.99,,2013-02-27 01:00:00,
2013-02-26 17:01:00,51.0,22.0,-100.00,SW,225,7.0,12.0,31,-99.99,,,-99.99,,2013-02-27 01:01:00,
2013-02-26 19:01:00,47.0,22.0,-100.00,SSW,205,6.0,13.0,36,-99.99,,,-99.99,,2013-02-27 03:01:00,
2013-02-26 20:01:00,46.0,22.0,-100.00,WSW,240,7.0,12.0,38,-99.99,,,-99.99,,2013-02-27 04:01:00,
2013-02-26 20:11:00,46.0,22.0,-100.00,WSW,240,7.0,12.0,38,-99.99,,,-99.99,,2013-02-27 04:11:00,
2013-02-26 21:01:00,45.0,24.0,-100.00,West,270,5.0,13.0,43,-99.99,,,-99.99,,2013-02-27 05:01:00,
2013-02-26 22:02:00,42.0,26.0,-100.00,SW,235,2.0,3.0,52,-99.99,,,-99.99,,2013-02-27 06:02:00,
2013-02-26 22:11:00,42.0,26.0,-100.00,SW,235,2.0,3.0,52,-99.99,,,-99.99,,2013-02-27 06:11:00,
2013-02-26 23:01:00,40.0,26.0,-100.00,ESE,105,1.0,3.0,57,-99.99,,,-99.99,,2013-02-27 07:01:00,